| time (UTC) | temp F | wind direction | speed MPH | gust MPH | rain 1hr in | rain 24hr in | rain mn in | humidity % | barometer mb |
| 20260507214525 | 68 | 139 | 6.0 | 13.0 | 0.00 | 0.00 | 0.00 | 35 | 1009.7 |
| 20260507213031 | 68 | 139 | 6.0 | 11.0 | 0.00 | 0.00 | 0.00 | 32 | 1009.8 |
| 20260507211528 | 69 | 139 | 4.0 | 12.0 | 0.00 | 0.00 | 0.00 | 31 | 1010.0 |
| 20260507210026 | 67 | 139 | 7.0 | 14.0 | 0.00 | 0.00 | 0.00 | 33 | 1010.2 |
| 20260507204526 | 68 | 139 | 3.0 | 17.0 | 0.00 | 0.00 | 0.00 | 32 | 1010.2 |
| 20260507203032 | 67 | 139 | 9.0 | 14.0 | 0.00 | 0.00 | 0.00 | 33 | 1010.3 |
| 20260507201529 | 66 | 139 | 6.0 | 17.0 | 0.00 | 0.00 | 0.00 | 35 | 1010.2 |
| 20260507200028 | 67 | 139 | 6.0 | 16.0 | 0.00 | 0.00 | 0.00 | 35 | 1010.2 |
| 20260507194526 | 66 | 139 | 6.0 | 13.0 | 0.00 | 0.00 | 0.00 | 32 | 1010.1 |
| 20260507193028 | 66 | 139 | 5.0 | 17.0 | 0.00 | 0.00 | 0.00 | 34 | 1010.2 |
| 20260507191528 | 66 | 139 | 6.0 | 18.0 | 0.00 | 0.00 | 0.00 | 33 | 1010.2 |
| 20260507190028 | 66 | 139 | 7.0 | 19.0 | 0.00 | 0.00 | 0.00 | 32 | 1010.1 |
| 20260507184525 | 66 | 139 | 6.0 | 12.0 | 0.00 | 0.00 | 0.00 | 34 | 1010.3 |
| 20260507183026 | 65 | 139 | 9.0 | 15.0 | 0.00 | 0.00 | 0.00 | 36 | 1010.3 |
| 20260507181531 | 64 | 139 | 8.0 | 15.0 | 0.00 | 0.00 | 0.00 | 35 | 1010.5 |
| 20260507180034 | 64 | 139 | 7.0 | 23.0 | 0.00 | 0.00 | 0.00 | 35 | 1010.7 |
| 20260507174528 | 63 | 140 | 7.0 | 14.0 | 0.00 | 0.00 | 0.00 | 37 | 1010.7 |
| 20260507173032 | 63 | 140 | 5.0 | 13.0 | 0.00 | 0.00 | 0.00 | 39 | 1010.7 |
| 20260507171526 | 63 | 140 | 5.0 | 11.0 | 0.00 | 0.00 | 0.00 | 39 | 1010.7 |
| 20260507170025 | 62 | 140 | 5.0 | 14.0 | 0.00 | 0.00 | 0.00 | 39 | 1010.7 |
| 20260507164526 | 62 | 140 | 7.0 | 16.0 | 0.00 | 0.00 | 0.00 | 38 | 1010.7 |
| 20260507163025 | 61 | 139 | 7.0 | 15.0 | 0.00 | 0.00 | 0.00 | 39 | 1010.6 |
| 20260507161530 | 61 | 139 | 6.0 | 13.0 | 0.00 | 0.00 | 0.00 | 41 | 1010.7 |
| 20260507160028 | 60 | 139 | 8.0 | 15.0 | 0.00 | 0.00 | 0.00 | 44 | 1010.6 |
| 20260507154526 | 58 | 139 | 5.0 | 13.0 | 0.00 | 0.00 | 0.00 | 49 | 1010.7 |
| 20260507153027 | 58 | 139 | 5.0 | 13.0 | 0.00 | 0.00 | 0.00 | 49 | 1010.7 |
| 20260507151528 | 57 | 139 | 7.0 | 13.0 | 0.00 | 0.00 | 0.00 | 51 | 1010.6 |
| 20260507150028 | 56 | 139 | 4.0 | 10.0 | 0.00 | 0.00 | 0.00 | 53 | 1010.5 |
| 20260507144530 | 56 | 139 | 4.0 | 12.0 | 0.00 | 0.00 | 0.00 | 53 | 1010.6 |
| 20260507143031 | 56 | 139 | 5.0 | 11.0 | 0.00 | 0.00 | 0.00 | 53 | 1010.5 |
| 20260507141526 | 54 | 139 | 4.0 | 8.0 | 0.00 | 0.00 | 0.00 | 57 | 1010.4 |
| 20260507140030 | 54 | 139 | 4.0 | 12.0 | 0.00 | 0.00 | 0.00 | 57 | 1010.4 |
| 20260507134528 | 54 | 139 | 6.0 | 12.0 | 0.00 | 0.00 | 0.00 | 58 | 1010.3 |
| 20260507133028 | 53 | 139 | 6.0 | 11.0 | 0.00 | 0.00 | 0.00 | 59 | 1010.0 |
| 20260507131534 | 53 | 139 | 6.0 | 10.0 | 0.00 | 0.00 | 0.00 | 60 | 1010.1 |
| 20260507130025 | 53 | 139 | 5.0 | 8.0 | 0.00 | 0.00 | 0.00 | 61 | 1009.9 |
| 20260507124532 | 52 | 139 | 4.0 | 8.0 | 0.00 | 0.00 | 0.00 | 62 | 1009.8 |
| 20260507123028 | 52 | 139 | 4.0 | 10.0 | 0.00 | 0.00 | 0.00 | 62 | 1009.6 |
| 20260507121526 | 52 | 139 | 4.0 | 9.0 | 0.00 | 0.00 | 0.00 | 63 | 1009.5 |
| 20260507120028 | 52 | 139 | 5.0 | 10.0 | 0.00 | 0.00 | 0.00 | 62 | 1009.2 |
| 20260507114532 | 53 | 139 | 6.0 | 11.0 | 0.00 | 0.00 | 0.00 | 61 | 1009.2 |
| 20260507113028 | 53 | 139 | 5.0 | 8.0 | 0.00 | 0.00 | 0.00 | 60 | 1009.1 |
| 20260507111531 | 54 | 139 | 5.0 | 9.0 | 0.00 | 0.00 | 0.00 | 56 | 1008.9 |
| 20260507083032 | 56 | 139 | 5.0 | 9.0 | 0.00 | 0.00 | 0.00 | 56 | 1008.1 |
| 20260507081525 | 57 | 139 | 5.0 | 12.0 | 0.00 | 0.00 | 0.00 | 55 | 1008.1 |
| 20260507080029 | 57 | 139 | 6.0 | 13.0 | 0.00 | 0.00 | 0.00 | 53 | 1008.2 |
| 20260507074528 | 57 | 139 | 7.0 | 11.0 | 0.00 | 0.00 | 0.00 | 53 | 1008.2 |
| 20260507073028 | 57 | 139 | 7.0 | 10.0 | 0.00 | 0.00 | 0.00 | 53 | 1008.2 |
| 20260507071528 | 57 | 139 | 5.0 | 10.0 | 0.00 | 0.00 | 0.00 | 53 | 1008.2 |
| 20260507070031 | 57 | 139 | 4.0 | 6.0 | 0.00 | 0.00 | 0.00 | 54 | 1008.2 |
| 20260507064527 | 57 | 139 | 3.0 | 6.0 | 0.00 | 0.00 | 0.00 | 54 | 1008.3 |
| 20260507063026 | 56 | 139 | 2.0 | 4.0 | 0.00 | 0.00 | 0.00 | 55 | 1008.5 |
| 20260507061527 | 56 | 139 | 2.0 | 3.0 | 0.00 | 0.00 | 0.00 | 55 | 1008.4 |
| 20260507060030 | 57 | 139 | 1.0 | 2.0 | 0.00 | 0.00 | 0.00 | 54 | 1008.7 |
| 20260507054535 | 57 | 139 | 1.0 | 6.0 | 0.00 | 0.00 | 0.00 | 53 | 1008.9 |
| 20260507053030 | 56 | 139 | 0.0 | 2.0 | 0.00 | 0.00 | 0.00 | 56 | 1008.7 |
| 20260507051531 | 56 | 139 | 2.0 | 3.0 | 0.00 | 0.00 | 0.00 | 60 | 1008.8 |
| 20260507050029 | 56 | 139 | 1.0 | 3.0 | 0.00 | 0.00 | 0.00 | 59 | 1008.9 |
| 20260507044526 | 57 | 139 | 2.0 | 3.0 | 0.00 | 0.00 | 0.00 | 56 | 1008.8 |
| 20260507043027 | 58 | 139 | 1.0 | 5.0 | 0.00 | 0.00 | 0.00 | 55 | 1008.6 |
| 20260507041528 | 58 | 139 | 2.0 | 6.0 | 0.00 | 0.00 | 0.00 | 55 | 1008.5 |
| 20260507040026 | 59 | 139 | 2.0 | 4.0 | 0.00 | 0.00 | 0.00 | 53 | 1008.3 |
| 20260507034526 | 60 | 139 | 3.0 | 6.0 | 0.00 | 0.00 | 0.00 | 51 | 1008.2 |
| 20260507033030 | 61 | 139 | 2.0 | 4.0 | 0.00 | 0.00 | 0.00 | 48 | 1007.6 |
| 20260507031525 | 62 | 139 | 4.0 | 7.0 | 0.00 | 0.00 | 0.00 | 45 | 1007.1 |
| 20260507030031 | 62 | 139 | 2.0 | 6.0 | 0.00 | 0.00 | 0.00 | 44 | 1007.5 |
| 20260507024528 | 63 | 139 | 5.0 | 15.0 | 0.00 | 0.00 | 0.00 | 43 | 1007.9 |
| 20260507023026 | 64 | 139 | 7.0 | 18.0 | 0.00 | 0.00 | 0.00 | 35 | 1007.6 |
| 20260507021530 | 64 | 139 | 8.0 | 18.0 | 0.00 | 0.00 | 0.00 | 32 | 1007.4 |
| 20260507020030 | 65 | 140 | 4.0 | 9.0 | 0.00 | 0.00 | 0.00 | 30 | 1007.5 |
| 20260507014531 | 65 | 139 | 0.0 | 1.0 | 0.00 | 0.00 | 0.00 | 29 | 1007.5 |
| 20260507013042 | 65 | 139 | 1.0 | 4.0 | 0.00 | 0.00 | 0.00 | 28 | 1007.2 |
| 20260507011526 | 65 | 139 | 1.0 | 6.0 | 0.00 | 0.00 | 0.00 | 28 | 1006.8 |
| 20260507010035 | 66 | 139 | 2.0 | 5.0 | 0.00 | 0.00 | 0.00 | 28 | 1006.7 |
| 20260507004529 | 66 | 139 | 0.0 | 5.0 | 0.00 | 0.00 | 0.00 | 27 | 1006.9 |
| 20260507003038 | 66 | 139 | 3.0 | 7.0 | 0.00 | 0.00 | 0.00 | 27 | 1006.8 |
| 20260507000033 | 66 | 139 | 2.0 | 8.0 | 0.00 | 0.00 | 0.00 | 27 | 1006.6 |
| 20260506234528 | 66 | 139 | 4.0 | 8.0 | 0.00 | 0.00 | 0.00 | 27 | 1006.6 |
| 20260506233028 | 66 | 139 | 2.0 | 7.0 | 0.00 | 0.00 | 0.00 | 27 | 1006.6 |
| 20260506231528 | 66 | 139 | 4.0 | 7.0 | 0.00 | 0.00 | 0.00 | 27 | 1006.5 |
| 20260506230033 | 67 | 139 | 4.0 | 10.0 | 0.00 | 0.00 | 0.00 | 26 | 1006.7 |
| 20260506224530 | 67 | 139 | 4.0 | 9.0 | 0.00 | 0.00 | 0.00 | 27 | 1006.8 |
| 20260506223041 | 67 | 139 | 5.0 | 10.0 | 0.00 | 0.00 | 0.00 | 26 | 1006.9 |
| 20260506221527 | 66 | 139 | 6.0 | 10.0 | 0.00 | 0.00 | 0.00 | 27 | 1007.1 |
| 20260506220026 | 65 | 139 | 3.0 | 11.0 | 0.00 | 0.00 | 0.00 | 27 | 1007.1 |